Вернуться в каталог

STARLINK-33770

АктивенСвязьVLEO
NORAD 63906·PAYLOAD·🇺🇸 United States

Запущен May 10, 2025 с Cape Canaveral Space Force Station

Loading…

Ближайшие Пролёты (ближайшие 24 часа)

TLE

СвежийSource: CelesTrak SupGP

Эпоха: Sep 15, 2026, 03:15 UTC

1 63906C 25095S   26258.13590278  .00027714  00000+0  10042-2 0  2580
2 63906  43.0028 186.0682 0001348 272.8164 105.1742 15.27550730    16

Отслеживайте STARLINK-33770 в реальном времени с AllMySat

Download on the App Store